Torna al catalogo

STARLINK-34884

AttivoComunicazioniVLEO
NORAD 66287·PAYLOAD·🇺🇸 United States

Lanciato Oct 31, 2025 da Vandenberg Space Force Base

Loading…

Prossimi Passaggi (prossime 24 ore)

TLE

AggiornatoSource: CelesTrak SupGP

Epoca: Sep 14, 2026, 21:36 UTC

1 66287C 25247Y   26257.90048611  .00029207  00000+0  86342-3 0  2572
2 66287  53.1600  28.2511 0001112  73.9723 287.2225 15.34358911    10

Traccia STARLINK-34884 in tempo reale con AllMySat

Download on the App Store